Regional Weather Roundup
Issued by NWS

Home | Current Version | Previous Version | Graphics & Text | Print | Product List | Glossary On
Versions: 1 2 3 4 5 6 7 8 9 10 11 12 13 14 15 16 17 18 19 20 21 22 23 24 25 26 27 28 29 30 31 32 33 34 35 36 37 38 39 40 41 42 43 44 45 46 47 48 49 50
000
ASUS44 KMEG 301900
RWRTN
TENNESSEE HOURLY STATE WEATHER ROUNDUP
NATIONAL WEATHER SERVICE MEMPHIS TN
200 PM CDT MON MAR 30 2015

TNZ002-004-019-021-049-052-054-088>092-302000-
WEST TENNESSEE

CITY           SKY/WX    TMP DP  RH WIND       PRES   REMARKS
MEMPHIS INTL   MOSUNNY   70  38  31 VRB5      30.20F
NWS MEMPHIS      N/A    N/A N/A N/A MISG        N/A
JACKSON        SUNNY     68  34  28 CALM      30.20F
DYERSBURG      SUNNY     64  30  27 NE5       30.21F
UNION CITY     SUNNY     64  39  39 VRB3      30.19F
PARIS          SUNNY     63  25  23 CALM      30.19F
LEXINGTON      SUNNY     66  28  24 N5        30.18F
SAVANNAH       SUNNY     66  36  32 W7        30.20F
$$

TNZ008-025-027-028-033-062-065-066-302000-
NORTH MIDDLE TENNESSEE

CITY           SKY/WX    TMP DP  RH WIND       PRES   REMARKS
NASHVILLE      MOSUNNY   68  28  22 NW9G17    30.17F
CLARKSVILLE    SUNNY     65  25  22 NE6       30.17F
COOKEVILLE     SUNNY     66  28  24 VRB7        N/A
CROSSVILLE     SUNNY     61  27  27 NW14G21   30.14F
$$

TNZ061-075-076-078-094-096-097-302000-
SOUTH MIDDLE TENNESSEE

CITY           SKY/WX    TMP DP  RH WIND       PRES   REMARKS
FAYETTEVILLE   SUNNY     63  36  36 N7        30.18F
TULLAHOMA      SUNNY     64  30  27 N10       30.19F
WINCHESTER     SUNNY     64  34  32 NW10      30.18F
COLUMBIA       SUNNY     66  37  34 N8        30.17F
SHELBYVILLE    SUNNY     66  34  30 N10       30.18F
$$

TNZ017-018-042-046-047-302000-
NORTHEAST TENNESSEE

CITY           SKY/WX    TMP DP  RH WIND       PRES   REMARKS
TRI CITIES     MOSUNNY   62  32  32 W15G24    30.07F
ELIZABETHTON   PTCLDY    57  30  35 W10       30.06F
$$

TNZ012-013-036-069-073-074-302000-
CENTRAL EAST TENNESSEE

CITY           SKY/WX    TMP DP  RH WIND       PRES   REMARKS
KNOXVILLE      MOSUNNY   64  31  28 SW12G22   30.10F
OAK RIDGE      SUNNY     68  31  25 MISG      30.11F
GATLINBURG     MOCLDY    63  39  42 NW10      30.09F
$$

TNZ083-085-099-302000-
SOUTHEAST TENNESSEE

CITY           SKY/WX    TMP DP  RH WIND       PRES   REMARKS
CHATTANOOGA    MOSUNNY   67  39  35 NW3       30.14F
$$

SKY/WX REPORTED AS FAIR MEANS FEW OR NO CLOUDS BELOW
12 THOUSAND FEET.



USA.gov is the U.S. government's official web portal to all federal, state and local government web resources and services.